AMX2352 MMUN-MUCM

Flight info

Callsign AMX2352
Flight time 1h 17m
Altitude 37000
Route NUDAL1A NUDAL UR506 NUDUG UL212 UCL DCT HUZAR TAGON5A
Aircraft B738/M-SDE2E3FGHIRWXY/LB1

Departure

Time 2026-04-23 10:04
Airport Cancún International Airport (MMUN)

Arrival

Time 2026-04-23 11:21
Airport Ignacio Agramonte International Airport (MUCM)
Time Latitude Longitude Altitude Speed Heading
2026-04-23 09:38 21.04056 -86.87685 36 ft 0 kts 128°
2026-04-23 09:56 21.04063 -86.87695 36 ft 2 kts 128°
2026-04-23 09:57 21.04073 -86.87709 35 ft 2 kts 127°
2026-04-23 09:57 21.04083 -86.87723 35 ft 2 kts 130°
2026-04-23 09:57 21.04095 -86.87734 37 ft 2 kts 174°
2026-04-23 09:57 21.04106 -86.87732 37 ft 1 kts 216°
2026-04-23 09:58 21.04107 -86.87731 35 ft 0 kts 217°
2026-04-23 10:00 21.04104 -86.87734 36 ft 2 kts 220°
2026-04-23 10:00 21.04067 -86.87767 37 ft 13 kts 218°
2026-04-23 10:01 21.03972 -86.87847 36 ft 19 kts 245°
2026-04-23 10:01 21.04042 -86.88000 37 ft 29 kts 304°
2026-04-23 10:01 21.04176 -86.88212 37 ft 39 kts 304°
2026-04-23 10:01 21.04336 -86.88466 36 ft 37 kts 302°
2026-04-23 10:02 21.04476 -86.88694 37 ft 36 kts 304°
2026-04-23 10:02 21.04610 -86.88908 37 ft 32 kts 303°
2026-04-23 10:02 21.04615 -86.89024 37 ft 11 kts 217°
2026-04-23 10:02 21.04610 -86.89028 35 ft 0 kts 216°
2026-04-23 10:03 21.04608 -86.89029 36 ft 2 kts 216°
2026-04-23 10:03 21.04574 -86.89056 37 ft 11 kts 215°
2026-04-23 10:03 21.04485 -86.89022 35 ft 20 kts 124°
2026-04-23 10:03 21.04368 -86.88828 37 ft 58 kts 124°
2026-04-23 10:04 21.03995 -86.88241 37 ft 129 kts 123°
2026-04-23 10:04 21.03395 -86.87263 191 ft 172 kts 124°
2026-04-23 10:04 21.02771 -86.86246 1221 ft 155 kts 122°
2026-04-23 10:04 21.02223 -86.85267 2069 ft 155 kts 120°
2026-04-23 10:05 21.01651 -86.84178 2326 ft 182 kts 120°
2026-04-23 10:05 21.01003 -86.82941 2516 ft 203 kts 120°
2026-04-23 10:05 21.00275 -86.81560 2689 ft 223 kts 121°
2026-04-23 10:05 20.99478 -86.80056 2867 ft 243 kts 121°
2026-04-23 10:06 20.98620 -86.78428 3300 ft 256 kts 120°
2026-04-23 10:06 20.97763 -86.76739 3949 ft 260 kts 118°
2026-04-23 10:06 20.96936 -86.75037 4634 ft 260 kts 118°
2026-04-23 10:06 20.96308 -86.73211 4913 ft 262 kts 100°
2026-04-23 10:07 20.96056 -86.71268 5348 ft 266 kts 93°
2026-04-23 10:07 20.96326 -86.69279 5910 ft 274 kts 76°
2026-04-23 10:07 20.96784 -86.67301 6569 ft 278 kts 77°
2026-04-23 10:07 20.97208 -86.65271 7200 ft 282 kts 78°
2026-04-23 10:08 20.97614 -86.63187 7825 ft 288 kts 78°
2026-04-23 10:08 20.98016 -86.61067 8484 ft 292 kts 79°
2026-04-23 10:08 20.98457 -86.58917 9103 ft 299 kts 74°
2026-04-23 10:09 20.99880 -86.54685 10344 ft 313 kts 68°
2026-04-23 10:09 21.00707 -86.52421 10528 ft 336 kts 68°
2026-04-23 10:09 21.01563 -86.50059 11035 ft 345 kts 68°
2026-04-23 10:09 21.02423 -86.47655 11609 ft 351 kts 68°
2026-04-23 10:10 21.03291 -86.45199 12364 ft 352 kts 68°
2026-04-23 10:10 21.04158 -86.42727 13053 ft 356 kts 68°
2026-04-23 10:10 21.05021 -86.40254 13728 ft 360 kts 68°
2026-04-23 10:10 21.05901 -86.37721 14346 ft 364 kts 68°
2026-04-23 10:11 21.06789 -86.35163 14977 ft 369 kts 68°
2026-04-23 10:11 21.07688 -86.32569 15606 ft 373 kts 68°
2026-04-23 10:11 21.08601 -86.29930 16235 ft 378 kts 68°
2026-04-23 10:11 21.09514 -86.27292 16862 ft 382 kts 68°
2026-04-23 10:12 21.10445 -86.24598 17483 ft 387 kts 68°
2026-04-23 10:12 21.11388 -86.21868 18073 ft 393 kts 68°
2026-04-23 10:12 21.12347 -86.19092 18624 ft 398 kts 68°
2026-04-23 10:12 21.13301 -86.16325 19165 ft 401 kts 68°
2026-04-23 10:13 21.14276 -86.13497 19687 ft 406 kts 68°
2026-04-23 10:13 21.15260 -86.10641 20209 ft 410 kts 68°
2026-04-23 10:13 21.16253 -86.07757 20735 ft 414 kts 68°
2026-04-23 10:13 21.17257 -86.04843 21267 ft 418 kts 68°
2026-04-23 10:14 21.18255 -86.01942 21765 ft 422 kts 68°
2026-04-23 10:14 21.19275 -85.98971 22277 ft 427 kts 69°
2026-04-23 10:14 21.20127 -85.95885 22754 ft 432 kts 76°
2026-04-23 10:14 21.20734 -85.92749 23234 ft 436 kts 78°
2026-04-23 10:15 21.21273 -85.89524 23677 ft 440 kts 79°
2026-04-23 10:15 21.21814 -85.86270 24085 ft 444 kts 79°
2026-04-23 10:15 21.22382 -85.83008 24497 ft 446 kts 78°
2026-04-23 10:15 21.22976 -85.79745 24910 ft 449 kts 77°
2026-04-23 10:16 21.23595 -85.76441 25320 ft 452 kts 77°
2026-04-23 10:16 21.24224 -85.73116 25716 ft 455 kts 77°
2026-04-23 10:16 21.24858 -85.69771 26109 ft 458 kts 77°
2026-04-23 10:16 21.25485 -85.66449 26493 ft 462 kts 77°
2026-04-23 10:17 21.26156 -85.63073 26865 ft 464 kts 72°
2026-04-23 10:17 21.27447 -85.59914 27188 ft 462 kts 53°
2026-04-23 10:17 21.29243 -85.57057 27627 ft 462 kts 52°
2026-04-23 10:17 21.31063 -85.54195 28001 ft 465 kts 52°
2026-04-23 10:18 21.32886 -85.51308 28345 ft 468 kts 52°
2026-04-23 10:18 21.34687 -85.48429 28678 ft 471 kts 53°
2026-04-23 10:18 21.36511 -85.45484 29045 ft 474 kts 53°
2026-04-23 10:18 21.38335 -85.42519 29399 ft 477 kts 53°
2026-04-23 10:19 21.40151 -85.39555 29731 ft 480 kts 53°
2026-04-23 10:19 21.41991 -85.36547 30032 ft 484 kts 53°
2026-04-23 10:19 21.43847 -85.33509 30309 ft 486 kts 53°
2026-04-23 10:19 21.45717 -85.30449 30552 ft 490 kts 53°
2026-04-23 10:20 21.47573 -85.27411 30767 ft 494 kts 53°
2026-04-23 10:20 21.49470 -85.24304 30981 ft 497 kts 53°
2026-04-23 10:20 21.51373 -85.21187 31206 ft 500 kts 53°
2026-04-23 10:20 21.53292 -85.18042 31420 ft 503 kts 53°
2026-04-23 10:21 21.55195 -85.14921 31618 ft 507 kts 53°
2026-04-23 10:21 21.57140 -85.11731 31829 ft 509 kts 54°
2026-04-23 10:21 21.59086 -85.08534 32118 ft 510 kts 54°
2026-04-23 10:21 21.61034 -85.05333 32410 ft 511 kts 54°
2026-04-23 10:22 21.62982 -85.02130 32653 ft 513 kts 54°
2026-04-23 10:22 21.64915 -84.98952 32843 ft 516 kts 54°
2026-04-23 10:22 21.66889 -84.95705 33108 ft 517 kts 54°
2026-04-23 10:22 21.68862 -84.92456 33397 ft 518 kts 54°
2026-04-23 10:23 21.70835 -84.89204 33671 ft 519 kts 54°
2026-04-23 10:23 21.72787 -84.85985 33944 ft 520 kts 54°
2026-04-23 10:23 21.74768 -84.82716 34212 ft 520 kts 54°
2026-04-23 10:23 21.76743 -84.79457 34502 ft 519 kts 54°
2026-04-23 10:24 21.78716 -84.76198 34805 ft 518 kts 54°
2026-04-23 10:24 21.80680 -84.72939 35079 ft 518 kts 54°
2026-04-23 10:24 21.82589 -84.69686 35323 ft 519 kts 57°
2026-04-23 10:24 21.84113 -84.66146 35547 ft 522 kts 71°
2026-04-23 10:25 21.85006 -84.62356 35775 ft 523 kts 82°
2026-04-23 10:25 21.85295 -84.58459 35984 ft 520 kts 95°
2026-04-23 10:25 21.85037 -84.54587 36288 ft 516 kts 98°
2026-04-23 10:25 21.84696 -84.50739 36601 ft 514 kts 98°
2026-04-23 10:26 21.84346 -84.46962 36850 ft 514 kts 98°
2026-04-23 10:26 21.84001 -84.43120 37008 ft 516 kts 98°
2026-04-23 10:26 21.83354 -84.35358 37010 ft 520 kts 97°
2026-04-23 10:27 21.82758 -84.27652 36990 ft 516 kts 97°
2026-04-23 10:27 21.82170 -84.19972 37003 ft 513 kts 97°
2026-04-23 10:28 21.81573 -84.12306 37008 ft 512 kts 98°
2026-04-23 10:28 21.80971 -84.04678 37012 ft 512 kts 98°
2026-04-23 10:29 21.80368 -83.97072 37012 ft 512 kts 98°
2026-04-23 10:29 21.79757 -83.89401 37002 ft 513 kts 98°
2026-04-23 10:30 21.79147 -83.81794 37013 ft 513 kts 98°
2026-04-23 10:30 21.78531 -83.74151 37015 ft 514 kts 98°
2026-04-23 10:31 21.77907 -83.66461 37016 ft 515 kts 98°
2026-04-23 10:31 21.77284 -83.58808 37017 ft 516 kts 98°
2026-04-23 10:32 21.76652 -83.51100 37006 ft 516 kts 98°
2026-04-23 10:32 21.76021 -83.43447 37018 ft 517 kts 98°
2026-04-23 10:33 21.75378 -83.35725 37010 ft 517 kts 98°
2026-04-23 10:33 21.74734 -83.28052 37024 ft 517 kts 98°
2026-04-23 10:34 21.74084 -83.20328 37019 ft 517 kts 98°
2026-04-23 10:34 21.73433 -83.12636 37028 ft 517 kts 98°
2026-04-23 10:35 21.72776 -83.04922 37021 ft 517 kts 98°
2026-04-23 10:35 21.72121 -82.97257 37027 ft 516 kts 98°
2026-04-23 10:36 21.71460 -82.89549 37028 ft 516 kts 98°
2026-04-23 10:36 21.70842 -82.81885 37024 ft 516 kts 98°
2026-04-23 10:37 21.70233 -82.74181 37022 ft 516 kts 98°
2026-04-23 10:37 21.69618 -82.66531 37032 ft 515 kts 98°
2026-04-23 10:38 21.68991 -82.58826 37024 ft 515 kts 98°
2026-04-23 10:38 21.68366 -82.51188 37023 ft 514 kts 98°
2026-04-23 10:39 21.67762 -82.43535 37029 ft 514 kts 98°
2026-04-23 10:39 21.67170 -82.35879 37026 ft 514 kts 98°
2026-04-23 10:40 21.66575 -82.28250 37029 ft 514 kts 98°
2026-04-23 10:40 21.65970 -82.20581 37029 ft 514 kts 98°
2026-04-23 10:41 21.65359 -82.12903 37025 ft 514 kts 98°
2026-04-23 10:41 21.64749 -82.05278 37030 ft 515 kts 98°
2026-04-23 10:42 21.64130 -81.97579 37032 ft 515 kts 98°
2026-04-23 10:42 21.63510 -81.89923 37035 ft 516 kts 98°
2026-04-23 10:43 21.62885 -81.82233 37034 ft 516 kts 98°
2026-04-23 10:43 21.62258 -81.74573 37036 ft 516 kts 98°
2026-04-23 10:44 21.61627 -81.66901 37036 ft 517 kts 98°
2026-04-23 10:44 21.60990 -81.59194 37036 ft 517 kts 98°
2026-04-23 10:45 21.60580 -81.52769 37027 ft 519 kts 91°
2026-04-23 10:45 21.61344 -81.45039 37035 ft 520 kts 83°
2026-04-23 10:46 21.62381 -81.37380 37030 ft 520 kts 83°
2026-04-23 10:46 21.63385 -81.29666 37034 ft 520 kts 83°
2026-04-23 10:47 21.64329 -81.21988 37042 ft 519 kts 83°
2026-04-23 10:47 21.65258 -81.14253 37037 ft 519 kts 84°
2026-04-23 10:48 21.66175 -81.06589 37042 ft 519 kts 84°
2026-04-23 10:48 21.67092 -80.98918 37044 ft 518 kts 84°
2026-04-23 10:49 21.68014 -80.91193 37043 ft 518 kts 84°
2026-04-23 10:49 21.68923 -80.83544 37048 ft 518 kts 84°
2026-04-23 10:50 21.69835 -80.75840 36683 ft 522 kts 84°
2026-04-23 10:50 21.70292 -80.71968 36232 ft 520 kts 84°
2026-04-23 10:50 21.70746 -80.68114 35778 ft 518 kts 83°
2026-04-23 10:51 21.71191 -80.64328 35389 ft 514 kts 83°
2026-04-23 10:51 21.71638 -80.60520 34986 ft 511 kts 83°
2026-04-23 10:51 21.72081 -80.56736 34596 ft 508 kts 83°
2026-04-23 10:51 21.72521 -80.52971 34194 ft 506 kts 83°
2026-04-23 10:52 21.72958 -80.49217 33789 ft 503 kts 83°
2026-04-23 10:52 21.73387 -80.45533 33367 ft 500 kts 83°
2026-04-23 10:52 21.73818 -80.41826 32948 ft 497 kts 83°
2026-04-23 10:52 21.74244 -80.38146 32659 ft 491 kts 83°
2026-04-23 10:53 21.74660 -80.34557 32410 ft 485 kts 83°
2026-04-23 10:53 21.75074 -80.30972 32159 ft 479 kts 83°
2026-04-23 10:53 21.75483 -80.27424 31894 ft 473 kts 83°
2026-04-23 10:53 21.75884 -80.23934 31654 ft 466 kts 83°
2026-04-23 10:54 21.76274 -80.20539 31404 ft 460 kts 84°
2026-04-23 10:54 21.76665 -80.17123 31178 ft 460 kts 84°
2026-04-23 10:54 21.77058 -80.13689 30963 ft 463 kts 84°
2026-04-23 10:54 21.77451 -80.10239 30737 ft 464 kts 84°
2026-04-23 10:55 21.77843 -80.06800 30492 ft 460 kts 84°
2026-04-23 10:55 21.78227 -80.03429 30204 ft 457 kts 84°
2026-04-23 10:55 21.78613 -80.00030 29810 ft 454 kts 84°
2026-04-23 10:55 21.78995 -79.96664 29410 ft 450 kts 84°
2026-04-23 10:56 21.79369 -79.93357 29010 ft 447 kts 84°
2026-04-23 10:56 21.79744 -79.90035 28629 ft 444 kts 84°
2026-04-23 10:56 21.80110 -79.86782 28254 ft 441 kts 84°
2026-04-23 10:56 21.80478 -79.83507 27882 ft 438 kts 84°
2026-04-23 10:57 21.80844 -79.80252 27503 ft 435 kts 84°
2026-04-23 10:57 21.81206 -79.77022 27147 ft 433 kts 84°
2026-04-23 10:57 21.81565 -79.73815 26771 ft 431 kts 84°
2026-04-23 10:57 21.81919 -79.70642 26393 ft 430 kts 83°
2026-04-23 10:58 21.82274 -79.67455 26015 ft 428 kts 83°
2026-04-23 10:58 21.82625 -79.64300 25640 ft 427 kts 83°
2026-04-23 10:58 21.82980 -79.61107 25205 ft 428 kts 83°
2026-04-23 10:58 21.83334 -79.57922 24841 ft 425 kts 83°
2026-04-23 10:59 21.83679 -79.54801 24445 ft 424 kts 83°
2026-04-23 10:59 21.84027 -79.51654 24077 ft 422 kts 83°
2026-04-23 10:59 21.84375 -79.48498 23683 ft 421 kts 83°
2026-04-23 10:59 21.84715 -79.45405 23249 ft 419 kts 83°
2026-04-23 11:00 21.85057 -79.42298 22848 ft 416 kts 83°
2026-04-23 11:00 21.85397 -79.39204 22474 ft 413 kts 83°
2026-04-23 11:00 21.85733 -79.36133 22102 ft 410 kts 83°
2026-04-23 11:00 21.86066 -79.33093 21733 ft 407 kts 83°
2026-04-23 11:01 21.86393 -79.30097 21370 ft 404 kts 83°
2026-04-23 11:01 21.86720 -79.27099 20998 ft 402 kts 83°
2026-04-23 11:01 21.87044 -79.24120 20636 ft 399 kts 83°
2026-04-23 11:01 21.87366 -79.21159 20275 ft 396 kts 83°
2026-04-23 11:02 21.87682 -79.18244 19921 ft 393 kts 83°
2026-04-23 11:02 21.87998 -79.15320 19564 ft 391 kts 84°
2026-04-23 11:02 21.88045 -79.12409 19182 ft 384 kts 97°
2026-04-23 11:02 21.87554 -79.09622 18837 ft 373 kts 108°
2026-04-23 11:03 21.86645 -79.07092 18507 ft 362 kts 116°
2026-04-23 11:03 21.85618 -79.04618 18131 ft 361 kts 116°
2026-04-23 11:03 21.84579 -79.02151 17769 ft 359 kts 116°
2026-04-23 11:03 21.83546 -78.99696 17417 ft 357 kts 115°
2026-04-23 11:04 21.82539 -78.97291 17066 ft 355 kts 115°
2026-04-23 11:04 21.81532 -78.94870 16738 ft 353 kts 115°
2026-04-23 11:04 21.80533 -78.92461 16404 ft 351 kts 115°
2026-04-23 11:04 21.79540 -78.90060 16070 ft 349 kts 114°
2026-04-23 11:05 21.78558 -78.87684 15734 ft 347 kts 114°
2026-04-23 11:05 21.77594 -78.85348 15407 ft 345 kts 114°
2026-04-23 11:05 21.76620 -78.82989 15064 ft 340 kts 114°
2026-04-23 11:05 21.75671 -78.80691 14730 ft 331 kts 114°
2026-04-23 11:06 21.73854 -78.76292 14097 ft 315 kts 113°
2026-04-23 11:06 21.72971 -78.74158 13786 ft 308 kts 113°
2026-04-23 11:06 21.72101 -78.72054 13472 ft 306 kts 113°
2026-04-23 11:07 21.71240 -78.69972 13181 ft 303 kts 113°
2026-04-23 11:07 21.70396 -78.67931 12849 ft 300 kts 113°
2026-04-23 11:07 21.69549 -78.65885 12531 ft 297 kts 113°
2026-04-23 11:07 21.68709 -78.63856 12221 ft 295 kts 113°
2026-04-23 11:08 21.67883 -78.61862 11921 ft 292 kts 114°
2026-04-23 11:08 21.67057 -78.59871 11625 ft 290 kts 114°
2026-04-23 11:08 21.66236 -78.57889 11328 ft 288 kts 114°
2026-04-23 11:08 21.65420 -78.55923 11036 ft 286 kts 114°
2026-04-23 11:09 21.64621 -78.53998 10748 ft 285 kts 114°
2026-04-23 11:09 21.63810 -78.52044 10443 ft 284 kts 114°
2026-04-23 11:09 21.63014 -78.50127 10230 ft 280 kts 114°
2026-04-23 11:09 21.62226 -78.48230 10078 ft 275 kts 114°
2026-04-23 11:10 21.61436 -78.46331 9848 ft 279 kts 114°
2026-04-23 11:10 21.60639 -78.44414 9557 ft 281 kts 114°
2026-04-23 11:10 21.59850 -78.42518 9269 ft 280 kts 114°
2026-04-23 11:10 21.59053 -78.40602 8983 ft 279 kts 114°
2026-04-23 11:11 21.58264 -78.38708 8698 ft 279 kts 114°
2026-04-23 11:11 21.57470 -78.36800 8416 ft 278 kts 114°
2026-04-23 11:11 21.56682 -78.34908 8129 ft 276 kts 114°
2026-04-23 11:11 21.55900 -78.33033 7849 ft 273 kts 114°
2026-04-23 11:12 21.55126 -78.31175 7570 ft 271 kts 114°
2026-04-23 11:12 21.54366 -78.29354 7303 ft 269 kts 114°
2026-04-23 11:12 21.53603 -78.27525 7021 ft 266 kts 114°
2026-04-23 11:12 21.52845 -78.25709 6765 ft 264 kts 114°
2026-04-23 11:13 21.52102 -78.23928 6502 ft 263 kts 114°
2026-04-23 11:13 21.51355 -78.22139 6221 ft 261 kts 114°
2026-04-23 11:13 21.50615 -78.20369 5947 ft 259 kts 114°
2026-04-23 11:13 21.49880 -78.18610 5679 ft 254 kts 114°
2026-04-23 11:14 21.49181 -78.16939 5438 ft 242 kts 114°
2026-04-23 11:14 21.48508 -78.15330 5208 ft 229 kts 114°
2026-04-23 11:14 21.47869 -78.13801 4959 ft 217 kts 113°
2026-04-23 11:14 21.47270 -78.12371 4736 ft 209 kts 113°
2026-04-23 11:15 21.46676 -78.10951 4532 ft 207 kts 113°
2026-04-23 11:15 21.46087 -78.09545 4319 ft 205 kts 113°
2026-04-23 11:15 21.45508 -78.08165 4206 ft 198 kts 112°
2026-04-23 11:15 21.44908 -78.06864 4104 ft 197 kts 124°
2026-04-23 11:16 21.43759 -78.06034 4092 ft 205 kts 156°
2026-04-23 11:16 21.42397 -78.05478 3999 ft 211 kts 155°
2026-04-23 11:16 21.41046 -78.04906 3903 ft 210 kts 155°
2026-04-23 11:16 21.39693 -78.04336 3805 ft 207 kts 155°
2026-04-23 11:17 21.38351 -78.03772 3721 ft 206 kts 155°
2026-04-23 11:17 21.37054 -78.03146 3518 ft 207 kts 140°
2026-04-23 11:17 21.36251 -78.01941 3335 ft 198 kts 102°
2026-04-23 11:17 21.36245 -78.00492 3138 ft 195 kts 76°
2026-04-23 11:18 21.36700 -77.99137 2941 ft 189 kts 68°
2026-04-23 11:18 21.37194 -77.97856 2771 ft 189 kts 68°
2026-04-23 11:18 21.37691 -77.96535 2521 ft 191 kts 69°
2026-04-23 11:18 21.38180 -77.95218 2275 ft 188 kts 69°
2026-04-23 11:19 21.38662 -77.93912 2026 ft 188 kts 69°
2026-04-23 11:19 21.39140 -77.92612 1769 ft 182 kts 69°
2026-04-23 11:19 21.39573 -77.91436 1545 ft 160 kts 69°
2026-04-23 11:19 21.39965 -77.90369 1336 ft 146 kts 69°
2026-04-23 11:20 21.40333 -77.89375 1091 ft 142 kts 67°
2026-04-23 11:20 21.40727 -77.88392 720 ft 146 kts 68°
2026-04-23 11:20 21.41078 -77.87391 577 ft 140 kts 72°
2026-04-23 11:20 21.41413 -77.86414 473 ft 140 kts 66°
2026-04-23 11:21 21.41760 -77.85492 411 ft 116 kts 68°
2026-04-23 11:21 21.41963 -77.84934 407 ft 51 kts 68°
2026-04-23 11:21 21.42071 -77.84651 408 ft 36 kts 68°
2026-04-23 11:21 21.42157 -77.84480 409 ft 13 kts 20°
2026-04-23 11:22 21.42183 -77.84481 410 ft 0 kts 352°
2026-04-23 11:22 21.42185 -77.84481 410 ft 2 kts 352°
2026-04-23 11:22 21.42232 -77.84491 409 ft 1 kts 333°
2026-04-23 11:22 21.42269 -77.84510 409 ft 0 kts 335°
2026-04-23 11:23 21.42277 -77.84514 409 ft 6 kts 335°
2026-04-23 11:23 21.42316 -77.84532 409 ft 0 kts 336°
2026-04-23 11:24 21.42320 -77.84534 409 ft 4 kts 338°
2026-04-23 11:24 21.42354 -77.84536 408 ft 5 kts 26°
2026-04-23 11:24 21.42382 -77.84491 408 ft 6 kts 66°
2026-04-23 11:24 21.42384 -77.84485 405 ft 0 kts 66°
2026-04-23 11:25 21.42384 -77.84484 405 ft 2 kts 67°
2026-04-23 11:25 21.42386 -77.84479 407 ft 0 kts 67°